EA2CW-13 Weather Reports


time (UTC)temp
C
wind
direction
speed
KPH
gust
KPH
rain 1hr
cm
rain 24hr
cm
rain mn
cm
humidity
%
barometer
mb
20260507055923 12 0.0 0.0 0.00 0.00 0.00 87 1050.7
20260507054347 11 0.0 0.0 0.00 0.00 0.00 87 1050.7
20260507052811 11 0.0 0.0 0.00 0.00 0.00 87 1050.8
20260507051235 11 0.0 0.0 0.00 0.00 0.00 88 1050.5
20260507045659 11 0.0 0.0 0.00 0.00 0.00 88 1050.6
20260507044123 11 0.0 0.0 0.00 0.00 0.00 88 1050.9
20260507042547 11 0.0 0.0 0.00 0.00 0.00 88 1050.9
20260507041011 11 0.0 0.0 0.00 0.00 0.00 88 1050.7
20260507035435 11 0.0 0.0 0.00 0.00 0.00 88 1050.8
20260507033859 11 0.0 0.0 0.00 0.00 0.00 89 1050.8
20260507032323 12 0.0 0.0 0.00 0.00 0.00 89 1050.9
20260507030747 11 0.0 0.0 0.00 0.00 0.00 89 1050.9
20260507025211 12 0.0 0.0 0.00 0.00 0.00 89 1050.9
20260507023635 12 0.0 0.0 0.00 0.00 0.00 90 1051.0
20260507022059 12 0.0 0.0 0.00 0.00 0.00 90 1051.1
20260507020523 12 0.0 0.0 0.00 0.00 0.00 90 1051.1
20260507014947 12 0.0 0.0 0.00 0.00 0.00 91 1051.2
20260507013411 12 0.0 0.0 0.00 0.00 0.00 91 1051.2
20260507011835 12 0.0 0.0 0.00 0.00 0.00 91 1051.3
20260507010259 12 0.0 0.0 0.00 0.00 0.00 92 1051.4
20260507004723 11 0.0 0.0 0.00 0.00 0.00 92 1051.4
20260507003147 11 0.0 0.0 0.00 0.00 0.00 92 1051.5
20260507001611 11 0.0 0.0 0.00 0.00 0.00 92 1051.6
20260507000036 11 0.0 0.0 0.00 0.00 0.00 92 1051.7
20260506234500 12 0.0 0.0 0.00 0.00 0.00 91 1051.8
20260506232924 12 0.0 0.0 0.00 0.00 0.00 90 1051.8
20260506231348 12 0.0 0.0 0.00 0.00 0.00 90 1051.8
20260506225812 12 0.0 0.0 0.00 0.00 0.00 89 1051.7
20260506224236 12 0.0 0.0 0.00 0.00 0.00 88 1051.8
20260506222700 12 0.0 0.0 0.00 0.00 0.00 87 1051.9
20260506221124 13 0.0 0.0 0.00 0.00 0.00 87 1051.8
20260506215548 13 0.0 0.0 0.00 0.00 0.00 86 1051.8
20260506214012 13 0.0 0.0 0.00 0.00 0.00 85 1051.9
20260506212436 13 0.0 0.0 0.00 0.00 0.00 83 1052.0
20260506210900 13 0.0 0.0 0.00 0.00 0.00 83 1052.0
20260506205324 14 0.0 0.0 0.00 0.00 0.00 81 1051.9
20260506203748 14 0.0 0.0 0.00 0.00 0.00 79 1051.8
20260506202212 15 0.0 0.0 0.00 0.00 0.00 77 1051.6
20260506200636 15 0.0 0.0 0.00 0.00 0.00 75 1051.5
20260506195100 15 0.0 0.0 0.00 0.00 0.00 73 1051.3
20260506193524 16 0.0 0.0 0.00 0.00 0.00 70 1051.2
20260506191948 16 0.0 0.0 0.00 0.00 0.00 66 1051.0
20260506190412 17 0.0 0.0 0.00 0.00 0.00 62 1050.9
20260506184836 20 0.0 0.0 0.00 0.00 0.00 57 1050.8
20260506183300 21 0.0 0.0 0.00 0.00 0.00 57 1050.8
20260506181725 22 0.0 0.0 0.00 0.00 0.00 60 1050.8
20260506180148 21 0.0 0.0 0.00 0.00 0.00 66 1050.9
20260506174612 19 0.0 0.0 0.00 0.00 0.00 64 1050.9
20260506173036 19 0.0 0.0 0.00 0.00 0.00 65 1050.9
20260506171500 20 0.0 0.0 0.00 0.00 0.00 64 1051.1
20260506165924 20 0.0 0.0 0.00 0.00 0.00 67 1051.1
20260506164349 22 0.0 0.0 0.00 0.00 0.00 73 1051.0
20260506162813 20 0.0 0.0 0.00 0.00 0.00 76 1051.2
20260506161237 18 0.0 0.0 0.00 0.00 0.00 80 1051.5
20260506155701 18 0.0 0.0 0.00 0.00 0.00 82 1051.5
20260506154125 17 0.0 0.0 0.00 0.00 0.00 84 1051.6
20260506152549 16 0.0 0.0 0.00 0.00 0.00 84 1051.7
20260506151013 15 0.0 0.0 0.00 0.00 0.00 81 1051.9
20260506143901 16 0.0 0.0 0.00 0.00 0.00 75 1051.9
20260506142325 16 0.0 0.0 0.00 0.00 0.00 67 1052.0
20260506140749 17 0.0 0.0 0.00 0.00 0.00 62 1051.9
20260506135213 18 0.0 0.0 0.00 0.00 0.00 53 1051.9
20260506133637 21 0.0 0.0 0.00 0.00 0.00 49 1051.9
20260506132101 20 0.0 0.0 0.00 0.00 0.00 49 1051.8
20260506130525 21 0.0 0.0 0.00 0.00 0.00 50 1051.8
20260506124949 20 0.0 0.0 0.00 0.00 0.00 53 1051.7
20260506123413 20 0.0 0.0 0.00 0.00 0.00 52 1051.5
20260506121837 18 0.0 0.0 0.00 0.00 0.00 53 1051.4
20260506120301 20 0.0 0.0 0.00 0.00 0.00 52 1051.3
20260506114725 21 0.0 0.0 0.00 0.00 0.00 47 1051.4
20260506113149 21 0.0 0.0 0.00 0.00 0.00 47 1051.5
20260506111613 20 0.0 0.0 0.00 0.00 0.00 52 1051.6
20260506110037 20 0.0 0.0 0.00 0.00 0.00 51 1051.5
20260506104501 20 0.0 0.0 0.00 0.00 0.00 52 1051.6
20260506102925 19 0.0 0.0 0.00 0.00 0.00 52 1051.4
20260506101349 20 0.0 0.0 0.00 0.00 0.00 49 1051.3
20260506095814 21 0.0 0.0 0.00 0.00 0.00 50 1051.3
20260506094238 19 0.0 0.0 0.00 0.00 0.00 56 1051.4
20260506092702 17 0.0 0.0 0.00 0.00 0.00 56 1051.4
20260506091126 17 0.0 0.0 0.00 0.00 0.00 56 1051.2
20260506085550 18 0.0 0.0 0.00 0.00 0.00 57 1051.2
20260506084014 16 0.0 0.0 0.00 0.00 0.00 58 1051.1
20260506082438 17 0.0 0.0 0.00 0.00 0.00 57 1051.1
20260506080902 17 0.0 0.0 0.00 0.00 0.00 60 1051.2
20260506072214 16 0.0 0.0 0.00 0.00 0.00 81 1051.1
20260506070638 15 0.0 0.0 0.00 0.00 0.00 84 1051.1
20260506061950 13 0.0 0.0 0.00 0.00 0.00 88 1050.9